Regional Weather Roundup
Issued by NWS Huntsville, AL

Home | Current Version | Previous Version | Text Only | Print | Product List | Glossary On
Versions: 1 2 3 4 5 6 7 8 9 10 11 12 13 14 15 16 17 18 19 20 21 22 23 24 25 26 27 28 29
000
ASUS44 KHUN 301810
RWRHUN

WEATHER ROUNDUP FOR THE TENNESSEE VALLEY
NATIONAL WEATHER SERVICE HUNTSVILLE AL
100 PM CDT THU OCT 30 2014

ALZ001>004-301900-
NORTHWEST ALABAMA

CITY           SKY/WX    TMP DP  RH WIND       PRES   REMARKS
COURTLAND HCN    N/A     61 N/A N/A N3          N/A
RUSSELLVILLE     N/A     61 N/A N/A MISG        N/A
SHOALS AIRPORT SUNNY     64  33  31 VRB5      30.11F
6HR MIN TEMP:  39; 6HR MAX TEMP:  65;

SHOALS TVA RES   N/A     61 N/A N/A MISG        N/A
$$

ALZ005>007-016-301900-
NORTH CENTRAL ALABAMA

CITY           SKY/WX    TMP DP  RH WIND       PRES   REMARKS
DECATUR AP     SUNNY     62  36  37 NW7       30.10F
6HR MIN TEMP:  39; 6HR MAX TEMP:  63;

HUNTSVILLE AP  SUNNY     64  36  35 VRB5      30.09F
6HR MIN TEMP:  42; 6HR MAX TEMP:  65;

HUN NWS/UAH      N/A     62  33  33 NW8         N/A
MERIDIANVILLE  SUNNY     63  32  31 NW7       30.09F
REDSTONE ARSN  SUNNY     63  38  39 N10       30.08F
VINEMONT AP    FAIR      61  37  41 CALM      30.11F
$$

ALZ008>010-301900-
NORTHEAST ALABAMA

CITY           SKY/WX    TMP DP  RH WIND       PRES   REMARKS
ALBERTVILLE    SUNNY     61  43  51 NW6       30.07F
FORT PAYNE     SUNNY     61  34  36 E3        30.05F
SCOTTSBORO AP  SUNNY     63  39  42 N7        30.07F
SCOTTSBORO HCN   N/A     61 N/A N/A MISG        N/A
VALLEY HEAD      N/A     59 N/A N/A MISG        N/A
$$

TNZ076-096-097-301900-
SOUTHEASTERN MIDDLE TENNESSEE

CITY           SKY/WX    TMP DP  RH WIND       PRES   REMARKS
TULLAHOMA      SUNNY     59  39  47 W8        30.10F
WINCHESTER     SUNNY     57  39  51 NW7       30.09F
$$

...SURROUNDING SITES...

CITY           SKY/WX    TMP DP  RH WIND       PRES   REMARKS
ATLANTA        SUNNY     63  39  41 S5        30.03F
ANNISTON       SUNNY     65  38  36 N8        30.07F
BIRMINGHAM     SUNNY     64  35  34 N7        30.10F
CHATTANOOGA    SUNNY     63  38  39 N5        30.06F
CORINTH        FAIR      63  36  36 CALM      30.11F
DALTON         SUNNY     61  37  41 NW7       30.05F
GADSDEN        SUNNY     63  36  36 NW7       30.07F
GOLDEN TRNGL   SUNNY     66  37  34 NE7       30.11F
HALEYVILLE     FAIR      62  34  35 N9        30.13F
JACKSON TN     SUNNY     63  37  38 NE3       30.12F
MEMPHIS        SUNNY     67  39  35 CALM      30.13F
MURFREESBORO   FAIR      58  38  47 VRB5      30.11F
NASHVILLE      MOSUNNY   59  38  45 CALM      30.12F
OXFORD MS      FAIR      64  36  34 CALM      30.14F
ROME           SUNNY     64  39  39 N8        30.05F
SAVANNAH       SUNNY     63  39  42 VRB5      30.12F
TUPELO         SUNNY     65  36  34 N9        30.11F
TUSCALOOSA     SUNNY     66  37  34 VRB5      30.10F
$$

...GULF COAST WEATHER...

CITY           SKY/WX    TMP DP  RH WIND       PRES   REMARKS
GULFPORT       SUNNY     72  41  32 NE14      30.07F
PASCAGOULA     SUNNY     72  41  32 NE10G23   30.06F
MOBILE         SUNNY     69  41  36 N15       30.07F
GULF SHORES    CLEAR     71  43  36 N6G16     30.04F
PENSACOLA      SUNNY     72  43  35 NE12G18   30.03F
DESTIN         SUNNY     72  45  37 N10       30.02F
PANAMA CITY    SUNNY     74  53  46 VRB7      29.99F
APPALACHICOLA  CLOUDY    74  56  53 N9        29.98F
$$




USA.gov is the U.S. government's official web portal to all federal, state and local government web resources and services.